QTR18 SKBO-GOBD

Flight info

Callsign QTR18
Flight time N/A
Altitude 35000
Route DANSA4RXAKROB/14R MAVDA UW20 AUC DCT MIQ UN669 AGBEL/N0493F370 UN669 ELJEZ/M085F370 DCT 2150N DCT 2340N DCT 22N036W DCT ERNEK/N0490F390 DCT EVKAS DCT BVT DCT MOGSA DCT PIVSA
Aircraft A35K/H-SDE2E3GHIJ3J4J5LM1ORWXY/LB1D1

Departure

Time N/A
Airport El Dorado International Airport (SKBO)

Arrival

Time 2026-04-25 19:17
Airport Blaise Diagne International Airport (GOBD)
Time Latitude Longitude Altitude Speed Heading
2026-04-25 17:38 19.56303 -29.62408 37398 ft 524 kts 126°
2026-04-25 17:39 19.52900 -29.55461 37438 ft 540 kts 114°
2026-04-25 17:39 19.49849 -29.48059 37296 ft 557 kts 115°
2026-04-25 17:40 19.48199 -29.44315 37159 ft 559 kts 117°
2026-04-25 17:40 19.46497 -29.40629 37043 ft 558 kts 118°
2026-04-25 17:40 19.42969 -29.33287 37034 ft 558 kts 118°
2026-04-25 17:41 19.39409 -29.26003 37034 ft 558 kts 118°
2026-04-25 17:41 19.35831 -29.18675 37037 ft 561 kts 118°
2026-04-25 17:42 19.32212 -29.11248 37037 ft 572 kts 118°
2026-04-25 17:42 19.28557 -29.03743 37037 ft 574 kts 118°
2026-04-25 17:43 19.24911 -28.96265 37028 ft 571 kts 118°
2026-04-25 17:43 19.21261 -28.88789 37028 ft 571 kts 118°
2026-04-25 17:44 19.17613 -28.81332 37029 ft 571 kts 118°
2026-04-25 17:44 19.13967 -28.73885 36832 ft 569 kts 118°
2026-04-25 17:45 19.12147 -28.70173 36381 ft 570 kts 118°
2026-04-25 17:45 19.11548 -28.68953 36199 ft 571 kts 118°
2026-04-25 17:45 19.08481 -28.62702 35268 ft 575 kts 118°
2026-04-25 17:45 19.06627 -28.58929 35057 ft 578 kts 118°
2026-04-25 17:46 19.02951 -28.51450 35026 ft 580 kts 118°
2026-04-25 17:46 18.99218 -28.43865 35021 ft 580 kts 118°
2026-04-25 17:47 18.95491 -28.36301 35018 ft 580 kts 118°
2026-04-25 17:47 18.91764 -28.28747 35018 ft 580 kts 118°
2026-04-25 17:48 18.86166 -28.17420 35018 ft 580 kts 118°
2026-04-25 17:49 18.82427 -28.09867 35010 ft 580 kts 118°
2026-04-25 17:49 18.78701 -28.02347 35017 ft 577 kts 119°
2026-04-25 17:50 18.74981 -27.94852 35019 ft 576 kts 119°
2026-04-25 17:50 18.71254 -27.87352 35018 ft 576 kts 119°
2026-04-25 17:51 18.67533 -27.79872 35017 ft 576 kts 119°
2026-04-25 17:51 18.63807 -27.72390 35018 ft 576 kts 119°
2026-04-25 17:52 18.60078 -27.64914 35002 ft 575 kts 119°
2026-04-25 17:52 18.56385 -27.57516 35018 ft 573 kts 119°
2026-04-25 17:53 18.52670 -27.50085 35015 ft 573 kts 119°
2026-04-25 17:53 18.48952 -27.42658 35012 ft 573 kts 119°
2026-04-25 17:54 18.45225 -27.35221 35011 ft 573 kts 119°
2026-04-25 17:54 18.41501 -27.27797 35011 ft 573 kts 119°
2026-04-25 17:55 18.37765 -27.20360 35012 ft 573 kts 119°
2026-04-25 17:55 18.34040 -27.12955 35007 ft 572 kts 119°
2026-04-25 17:56 18.30317 -27.05560 35006 ft 571 kts 119°
2026-04-25 17:56 18.26592 -26.98173 35004 ft 571 kts 119°
2026-04-25 17:57 18.22865 -26.90789 35004 ft 571 kts 119°
2026-04-25 17:57 18.19134 -26.83406 35005 ft 571 kts 119°
2026-04-25 17:58 18.15399 -26.76024 35001 ft 571 kts 119°
2026-04-25 17:58 18.11691 -26.68704 35002 ft 570 kts 119°
2026-04-25 17:59 18.07966 -26.61358 35001 ft 569 kts 119°
2026-04-25 17:59 18.04222 -26.53984 35002 ft 569 kts 119°
2026-04-25 18:00 18.00496 -26.46654 35000 ft 569 kts 119°
2026-04-25 18:00 17.96782 -26.39358 35001 ft 569 kts 119°
2026-04-25 18:01 17.93033 -26.31998 34997 ft 569 kts 119°
2026-04-25 18:01 17.89316 -26.24712 34982 ft 568 kts 119°
2026-04-25 18:02 17.85584 -26.17403 34993 ft 567 kts 119°
2026-04-25 18:02 17.81866 -26.10132 34993 ft 566 kts 119°
2026-04-25 18:03 17.78130 -26.02833 34990 ft 566 kts 119°
2026-04-25 18:03 17.75038 -25.96800 34990 ft 566 kts 120°
2026-04-25 18:04 17.71298 -25.89507 34991 ft 566 kts 120°
2026-04-25 18:04 17.67564 -25.82236 34988 ft 566 kts 120°
2026-04-25 18:05 17.63829 -25.74969 34985 ft 566 kts 120°
2026-04-25 18:05 17.60094 -25.67713 34987 ft 565 kts 120°
2026-04-25 18:06 17.56359 -25.60463 34991 ft 565 kts 120°
2026-04-25 18:06 17.52621 -25.53218 34990 ft 565 kts 120°
2026-04-25 18:07 17.48908 -25.46027 34985 ft 565 kts 120°
2026-04-25 18:07 17.45166 -25.38788 34987 ft 565 kts 120°
2026-04-25 18:08 17.41420 -25.31551 34986 ft 565 kts 120°
2026-04-25 18:08 17.37676 -25.24324 34985 ft 563 kts 120°
2026-04-25 18:09 17.33941 -25.17124 34986 ft 562 kts 120°
2026-04-25 18:09 17.30207 -25.09933 34982 ft 562 kts 120°
2026-04-25 18:10 17.26470 -25.02745 34985 ft 562 kts 120°
2026-04-25 18:10 17.22732 -24.95563 34985 ft 562 kts 120°
2026-04-25 18:11 17.18996 -24.88389 34977 ft 561 kts 120°
2026-04-25 18:11 17.15257 -24.81220 34977 ft 561 kts 120°
2026-04-25 18:12 17.11520 -24.74064 34988 ft 560 kts 120°
2026-04-25 18:12 17.07789 -24.66924 34971 ft 559 kts 120°
2026-04-25 18:13 17.04056 -24.59788 34967 ft 559 kts 120°
2026-04-25 18:13 17.00338 -24.52691 34969 ft 559 kts 120°
2026-04-25 18:14 16.94736 -24.42009 34959 ft 559 kts 120°
2026-04-25 18:14 16.90995 -24.34885 34959 ft 560 kts 120°
2026-04-25 18:15 16.87248 -24.27759 34958 ft 560 kts 120°
2026-04-25 18:15 16.83502 -24.20640 34952 ft 559 kts 120°
2026-04-25 18:16 16.79755 -24.13526 34958 ft 559 kts 120°
2026-04-25 18:17 16.74124 -24.02851 34977 ft 560 kts 120°
2026-04-25 18:17 16.70375 -23.95753 34969 ft 560 kts 120°
2026-04-25 18:18 16.66613 -23.88638 34960 ft 560 kts 120°
2026-04-25 18:18 16.62841 -23.81512 34955 ft 560 kts 120°
2026-04-25 18:19 16.59076 -23.74405 34958 ft 560 kts 121°
2026-04-25 18:19 16.55334 -23.67350 34955 ft 560 kts 121°
2026-04-25 18:20 16.51563 -23.60247 34952 ft 560 kts 121°
2026-04-25 18:20 16.47788 -23.53145 34948 ft 560 kts 121°
2026-04-25 18:21 16.43994 -23.46013 34946 ft 560 kts 121°
2026-04-25 18:21 16.40216 -23.38918 34946 ft 560 kts 121°
2026-04-25 18:22 16.36460 -23.31874 34947 ft 560 kts 121°
2026-04-25 18:22 16.32656 -23.24743 34955 ft 559 kts 121°
2026-04-25 18:23 16.28907 -23.17724 34940 ft 558 kts 121°
2026-04-25 18:23 16.25129 -23.10660 34951 ft 558 kts 121°
2026-04-25 18:24 16.21348 -23.03595 34946 ft 559 kts 121°
2026-04-25 18:24 16.17562 -22.96530 34939 ft 559 kts 121°
2026-04-25 18:25 16.13774 -22.89466 34938 ft 559 kts 121°
2026-04-25 18:25 16.09981 -22.82361 34932 ft 559 kts 120°
2026-04-25 18:26 16.06262 -22.75342 34943 ft 557 kts 120°
2026-04-25 18:26 16.02518 -22.68282 34940 ft 557 kts 121°
2026-04-25 18:27 15.98766 -22.61228 34940 ft 557 kts 121°
2026-04-25 18:27 15.95011 -22.54178 34943 ft 557 kts 121°
2026-04-25 18:28 15.91253 -22.47131 34944 ft 557 kts 121°
2026-04-25 18:28 15.87492 -22.40085 34937 ft 558 kts 121°
2026-04-25 18:29 15.81839 -22.29507 34933 ft 557 kts 120°
2026-04-25 18:30 15.74350 -22.15516 34934 ft 556 kts 121°
2026-04-25 18:30 15.70590 -22.08502 34932 ft 556 kts 121°
2026-04-25 18:31 15.66810 -22.01458 34934 ft 556 kts 121°
2026-04-25 18:31 15.63046 -21.94449 34934 ft 556 kts 121°
2026-04-25 18:32 15.59306 -21.87494 34931 ft 556 kts 121°
2026-04-25 18:32 15.55539 -21.80493 34932 ft 555 kts 121°
2026-04-25 18:33 15.51774 -21.73504 34925 ft 555 kts 120°
2026-04-25 18:33 15.48010 -21.66523 34915 ft 555 kts 121°
2026-04-25 18:34 15.44244 -21.59542 34925 ft 554 kts 121°
2026-04-25 18:34 15.40476 -21.52568 34919 ft 554 kts 121°
2026-04-25 18:35 15.36706 -21.45596 34924 ft 555 kts 120°
2026-04-25 18:35 15.32932 -21.38622 34920 ft 555 kts 121°
2026-04-25 18:36 15.29155 -21.31650 34921 ft 555 kts 121°
2026-04-25 18:36 15.25382 -21.24690 34918 ft 553 kts 120°
2026-04-25 18:37 15.21616 -21.17751 34923 ft 552 kts 120°
2026-04-25 18:37 15.17849 -21.10816 34920 ft 552 kts 120°
2026-04-25 18:38 15.14086 -21.03894 34913 ft 552 kts 120°
2026-04-25 18:38 15.10315 -20.96965 34916 ft 552 kts 120°
2026-04-25 18:39 15.06541 -20.90037 34919 ft 552 kts 120°
2026-04-25 18:39 15.02765 -20.83112 34915 ft 552 kts 120°
2026-04-25 18:40 14.98988 -20.76191 34909 ft 552 kts 120°
2026-04-25 18:40 14.95238 -20.69325 34909 ft 550 kts 120°
2026-04-25 18:41 14.91474 -20.62438 34911 ft 550 kts 120°
2026-04-25 18:41 14.87690 -20.55522 34910 ft 550 kts 120°
2026-04-25 18:42 14.85193 -20.50962 34912 ft 550 kts 120°
2026-04-25 18:42 14.80175 -20.41806 34908 ft 550 kts 120°
2026-04-25 18:43 14.76405 -20.34935 34909 ft 549 kts 120°
2026-04-25 18:43 14.72634 -20.28068 34907 ft 549 kts 120°
2026-04-25 18:44 14.69009 -20.21132 34905 ft 548 kts 112°
2026-04-25 18:44 14.66473 -20.13712 34902 ft 548 kts 108°
2026-04-25 18:45 14.64067 -20.06246 34903 ft 548 kts 108°
2026-04-25 18:45 14.61673 -19.98789 34903 ft 548 kts 108°
2026-04-25 18:46 14.59678 -19.92577 34899 ft 548 kts 108°
2026-04-25 18:46 14.57278 -19.85108 34900 ft 548 kts 108°
2026-04-25 18:47 14.54876 -19.77641 34900 ft 548 kts 108°
2026-04-25 18:47 14.52473 -19.70180 34900 ft 548 kts 108°
2026-04-25 18:48 14.50068 -19.62722 34895 ft 548 kts 108°
2026-04-25 18:48 14.47655 -19.55249 34893 ft 547 kts 108°
2026-04-25 18:49 14.45263 -19.47847 34897 ft 547 kts 108°
2026-04-25 18:49 14.42863 -19.40435 34711 ft 537 kts 108°
2026-04-25 18:50 14.41691 -19.36816 34475 ft 531 kts 108°
2026-04-25 18:50 14.40519 -19.33199 34250 ft 530 kts 108°
2026-04-25 18:50 14.39351 -19.29597 34024 ft 531 kts 108°
2026-04-25 18:50 14.38175 -19.25973 33787 ft 532 kts 108°
2026-04-25 18:51 14.36997 -19.22345 33527 ft 532 kts 108°
2026-04-25 18:51 14.36220 -19.19951 33363 ft 533 kts 108°
2026-04-25 18:51 14.34642 -19.15094 33020 ft 534 kts 108°
2026-04-25 18:51 14.33464 -19.11473 32772 ft 534 kts 108°
2026-04-25 18:52 14.32279 -19.07830 32522 ft 535 kts 107°
2026-04-25 18:52 14.31098 -19.04203 32277 ft 535 kts 107°
2026-04-25 18:52 14.29926 -19.00605 32042 ft 536 kts 107°
2026-04-25 18:52 14.28724 -18.96919 31789 ft 536 kts 107°
2026-04-25 18:53 14.27549 -18.93316 31551 ft 537 kts 107°
2026-04-25 18:53 14.26355 -18.89657 31311 ft 537 kts 107°
2026-04-25 18:53 14.25165 -18.86012 31079 ft 538 kts 107°
2026-04-25 18:53 14.23973 -18.82364 30847 ft 539 kts 107°
2026-04-25 18:54 14.21578 -18.75038 30373 ft 540 kts 107°
2026-04-25 18:54 14.20374 -18.71362 30173 ft 540 kts 107°
2026-04-25 18:54 14.19175 -18.67699 29936 ft 541 kts 107°
2026-04-25 18:55 14.17968 -18.64016 29663 ft 541 kts 107°
2026-04-25 18:55 14.16768 -18.60354 29400 ft 539 kts 107°
2026-04-25 18:55 14.15567 -18.56692 29128 ft 537 kts 107°
2026-04-25 18:55 14.14377 -18.53066 28870 ft 534 kts 107°
2026-04-25 18:56 14.13186 -18.49440 28609 ft 532 kts 107°
2026-04-25 18:56 14.12006 -18.45848 28353 ft 529 kts 107°
2026-04-25 18:56 14.10825 -18.42255 28099 ft 527 kts 108°
2026-04-25 18:56 14.09655 -18.38697 27843 ft 524 kts 108°
2026-04-25 18:57 14.08483 -18.35138 27599 ft 522 kts 108°
2026-04-25 18:57 14.07323 -18.31614 27351 ft 520 kts 108°
2026-04-25 18:57 14.06161 -18.28087 27097 ft 517 kts 108°
2026-04-25 18:57 14.05399 -18.25774 26943 ft 516 kts 108°
2026-04-25 18:58 14.03877 -18.21159 26456 ft 509 kts 108°
2026-04-25 18:58 14.01615 -18.14308 25177 ft 502 kts 108°
2026-04-25 18:58 14.00532 -18.11027 24546 ft 499 kts 108°
2026-04-25 18:59 13.98448 -18.04252 23222 ft 491 kts 100°
2026-04-25 18:59 13.98938 -17.97423 21889 ft 476 kts 68°
2026-04-25 19:00 14.02442 -17.91833 20682 ft 460 kts 49°
2026-04-25 19:00 14.04455 -17.89292 20054 ft 456 kts 50°
2026-04-25 19:01 14.08341 -17.84190 18808 ft 450 kts 51°
2026-04-25 19:01 14.10235 -17.81635 18173 ft 447 kts 51°
2026-04-25 19:01 14.12102 -17.79097 17482 ft 444 kts 51°
2026-04-25 19:01 14.13955 -17.76565 16825 ft 439 kts 52°
2026-04-25 19:02 14.17589 -17.71580 15557 ft 431 kts 52°
2026-04-25 19:02 14.19376 -17.69126 14924 ft 427 kts 52°
2026-04-25 19:02 14.21156 -17.66677 14289 ft 424 kts 53°
2026-04-25 19:03 14.23457 -17.62292 13227 ft 418 kts 71°
2026-04-25 19:03 14.24612 -17.58570 12344 ft 392 kts 73°
2026-04-25 19:03 14.25390 -17.55987 11721 ft 372 kts 73°
2026-04-25 19:04 14.26856 -17.51127 10481 ft 340 kts 74°
2026-04-25 19:04 14.27552 -17.48853 9866 ft 327 kts 73°
2026-04-25 19:05 14.28851 -17.44530 8593 ft 306 kts 73°
2026-04-25 19:05 14.30000 -17.40433 7352 ft 290 kts 73°
2026-04-25 19:05 14.30511 -17.38445 6734 ft 284 kts 73°
2026-04-25 19:06 14.30992 -17.36478 6135 ft 279 kts 73°
2026-04-25 19:06 14.31860 -17.32661 4882 ft 269 kts 74°
2026-04-25 19:06 14.32264 -17.30799 4262 ft 264 kts 75°
2026-04-25 19:07 14.33067 -17.27126 3190 ft 260 kts 75°
2026-04-25 19:07 14.33454 -17.25322 3016 ft 256 kts 74°
2026-04-25 19:08 14.34230 -17.21734 3001 ft 255 kts 73°
2026-04-25 19:08 14.34609 -17.19957 2999 ft 252 kts 74°
2026-04-25 19:09 14.35683 -17.14973 2998 ft 233 kts 73°
2026-04-25 19:09 14.35915 -17.13877 2994 ft 232 kts 73°
2026-04-25 19:09 14.36745 -17.10071 2993 ft 234 kts 73°
2026-04-25 19:10 14.37237 -17.08486 2984 ft 230 kts 53°
2026-04-25 19:10 14.38425 -17.07476 3002 ft 223 kts 22°
2026-04-25 19:10 14.39888 -17.06982 2994 ft 223 kts
2026-04-25 19:10 14.41430 -17.06874 2992 ft 221 kts 359°
2026-04-25 19:11 14.42975 -17.06901 2995 ft 223 kts 359°
2026-04-25 19:11 14.44503 -17.06922 2987 ft 212 kts 359°
2026-04-25 19:11 14.45914 -17.06943 2996 ft 193 kts 359°
2026-04-25 19:11 14.47193 -17.06960 3004 ft 177 kts 359°
2026-04-25 19:12 14.48409 -17.06975 2999 ft 175 kts 359°
2026-04-25 19:12 14.49632 -17.06990 2992 ft 176 kts 359°
2026-04-25 19:12 14.50880 -17.07007 2983 ft 180 kts 359°
2026-04-25 19:12 14.52133 -17.07027 2792 ft 180 kts 359°
2026-04-25 19:13 14.53371 -17.07047 2568 ft 178 kts 359°
2026-04-25 19:13 14.54616 -17.07068 2330 ft 177 kts
2026-04-25 19:13 14.55809 -17.07087 2116 ft 166 kts
2026-04-25 19:13 14.56919 -17.07106 1900 ft 150 kts
2026-04-25 19:14 14.57911 -17.07123 1715 ft 135 kts
2026-04-25 19:14 14.58214 -17.07127 1657 ft 132 kts
2026-04-25 19:14 14.59724 -17.07150 1391 ft 131 kts
2026-04-25 19:14 14.60632 -17.07165 1217 ft 129 kts
2026-04-25 19:15 14.61541 -17.07178 1068 ft 131 kts 358°
2026-04-25 19:15 14.62441 -17.07194 916 ft 129 kts 358°
2026-04-25 19:15 14.63342 -17.07228 760 ft 125 kts 358°
2026-04-25 19:15 14.64204 -17.07267 602 ft 126 kts
2026-04-25 19:16 14.65081 -17.07266 422 ft 126 kts 360°
2026-04-25 19:16 14.65963 -17.07271 313 ft 125 kts 358°
2026-04-25 19:16 14.66730 -17.07281 308 ft 88 kts 360°
2026-04-25 19:16 14.67202 -17.07286 304 ft 50 kts 360°
2026-04-25 19:17 14.67503 -17.07289 298 ft 38 kts 359°
2026-04-25 19:17 14.67730 -17.07230 297 ft 27 kts 27°
2026-04-25 19:17 14.67867 -17.07147 299 ft 9 kts 30°
2026-04-25 19:17 14.67921 -17.07118 297 ft 10 kts 23°
2026-04-25 19:18 14.67959 -17.07106 297 ft 5 kts 10°
2026-04-25 19:18 14.68010 -17.07103 297 ft 9 kts
2026-04-25 19:18 14.68060 -17.07062 296 ft 11 kts 65°
2026-04-25 19:18 14.68044 -17.06999 298 ft 8 kts 152°
2026-04-25 19:19 14.68002 -17.06983 297 ft 4 kts 149°
2026-04-25 19:19 14.67988 -17.06955 299 ft 6 kts 105°
2026-04-25 19:19 14.67986 -17.06908 298 ft 0 kts 90°
2026-04-25 19:20 14.67985 -17.06893 297 ft 0 kts 90°